GEESAT 3-05

导读 | 豆包AI

GEESAT 3-05是中国吉利未来星座(Geesat)的第三批次卫星,于北京时间2024年9月5日08:00发射入轨,该星座由吉利控股集团旗下时空道宇主导建设运营。作为低轨商业卫星,它搭载遥感载荷,将为自动驾驶、智慧城市、农业监测等领域提供天基数据支撑,助力吉利未来出行生态构建,也为全球商业卫星应用提供定制化服务,推动中国商业航天产业发展。

基本信息
目录编号:
61015
目录名称:
GEESAT 3-05
国际标识:
2024-159E
轨道中心:
EARTH
卫星名称:
GEESAT 3-05
卫星全名:
GEESAT 3-05
卫星状态:
在轨 (已飞行576 天)
发射日期:
2024-09-05 UTC
国别 :
中国 (CN)
星等 :
--
轨道信息
数据来源 国际轨道数据 AOE轨道数据
星历时间 2026-04-04T03:29:08+0800
5小时前
查看轨道信息
2026-04-02T19:00:00+0800
1天前
查看轨道信息
半长轴 6995.017km 6994.999km
偏心率 0.0012934 0.0012996
轨道倾角 50.002° 50.002°
近地点辐角 129.689° 124.758°
升交点赤经 68.198° 74.476°
平近点角 230.519° 199.240°
近地点 607.832km 607.771km
远地点 625.928km 625.953km
周期 97.038分钟 97.038分钟
每日圈数 14.839512 14.839569
详细信息
使用方式:
暂无
2D轨道图
3D轨道图
轨道高度分析图
轨道倾角分析图
轨道综合分析图
查看轨道综合分析图